Date,TemperatureHighF,TemperatureAvgF,TemperatureLowF,DewpointHighF,DewpointAvgF,DewpointLowF,HumidityHigh,HumidityAvg,HumidityLow,PressureMaxIn,PressureMinIn,WindSpeedMaxMPH,WindSpeedAvgMPH,GustSpeedMaxMPH,PrecipitationSumIn
2013-6-1,78,71,62,67,62,26,82,73,66,29.74,29.62,18,2,29,0.79
2013-6-2,72,63,54,64,55,45,83,76,65,29.96,29.66,10,2,15,0.02
2013-6-3,70,59,46,51,46,41,83,65,45,30.03,29.92,6,0,10,0.00
2013-6-4,78,65,51,56,51,46,83,62,42,30.08,29.97,6,0,13,0.00
2013-6-5,82,70,56,59,53,48,74,57,40,30.01,29.78,5,0,10,0.00
2013-6-6,81,70,60,60,54,46,71,58,45,29.80,29.70,8,1,10,0.00
2013-6-7,80,68,60,61,56,48,81,65,48,29.81,29.72,6,1,12,0.00
2013-6-8,84,69,54,61,54,46,82,60,38,29.90,29.80,9,0,13,0.00
2013-6-9,88,75,63,67,60,54,81,63,40,29.92,29.72,9,1,15,0.00
2013-6-10,84,73,64,68,63,57,82,71,51,29.74,29.65,9,1,16,0.47
2013-6-11,89,74,62,69,64,56,82,72,50,29.86,29.73,8,1,15,0.04
2013-6-12,94,80,69,77,70,62,82,72,55,29.80,29.48,24,1,57,2.36
2013-6-13,79,70,62,64,59,52,83,69,50,29.90,29.50,12,2,21,0.06
2013-6-14,110,70,55,72,58,50,83,66,30,30.02,29.89,6,1,12,0.00
2013-6-15,79,71,62,70,63,57,83,76,65,30.00,29.80,4,0,10,0.00
2013-6-16,86,76,68,71,66,62,82,72,58,29.86,29.77,18,2,28,0.00
2013-6-17,92,78,67,73,66,59,82,66,42,29.85,29.76,7,0,12,0.00
2013-6-18,85,75,67,68,62,58,80,66,50,29.91,29.76,6,1,13,0.00
2013-6-19,82,71,60,62,59,54,81,65,48,30.04,29.90,4,0,7,0.00
2013-6-20,90,77,64,69,63,18,78,63,47,30.07,29.97,6,0,14,0.00
2013-6-21,93,77,66,71,65,59,82,68,45,30.06,29.86,12,1,20,0.43
2013-6-22,86,74,68,72,65,56,82,74,63,30.00,29.93,4,1,6,0.00
2013-6-23,90,87,86,73,72,72,63,61,58,29.94,29.93,7,5,7,0.00
2013-6-24,89,83,70,75,70,63,82,67,59,30.00,29.85,7,3,7,0.00
2013-6-25,92,84,70,83,72,64,82,69,55,29.86,29.73,7,2,10,0.08
2013-6-26,79,73,68,73,67,59,82,80,71,29.79,29.62,5,0,5,0.06
2013-6-27,83,74,72,69,65,57,83,74,55,29.67,29.57,5,1,6,0.00
2013-6-28,86,75,65,74,63,44,79,68,45,29.84,29.49,15,2,29,0.00
2013-6-29,79,70,23,68,63,18,83,78,65,29.61,29.47,4,0,7,0.02
2013-6-30,70,66,65,61,58,53,81,76,55,29.65,29.57,0,0,2,0.10